| time (UTC) | temp F | wind direction | speed MPH | gust MPH | rain 1hr in | rain 24hr in | rain mn in | humidity % | barometer mb |
| 20260504100303 | 31 | 314 | 0.0 | 1.0 | 0.00 | 0.00 | 0.00 | 85 | 1012.7 |
| 20260504081803 | 33 | 299 | 0.0 | 0.0 | 0.00 | 0.00 | 0.00 | 83 | 1012.9 |
| 20260504080803 | 33 | 299 | 0.0 | 2.0 | 0.00 | 0.00 | 0.00 | 83 | 1013.0 |
| 20260504080303 | 33 | 299 | 0.0 | 2.0 | 0.00 | 0.00 | 0.00 | 82 | 1012.9 |
| 20260504070303 | 34 | 302 | 0.0 | 0.0 | 0.00 | 0.00 | 0.00 | 81 | 1012.9 |
| 20260504045803 | 37 | 302 | 0.0 | 0.0 | 0.00 | 0.00 | 0.00 | 77 | 1012.7 |
| 20260504045304 | 37 | 302 | 0.0 | 0.0 | 0.00 | 0.00 | 0.00 | 76 | 1012.7 |
| 20260504044803 | 37 | 302 | 0.0 | 0.0 | 0.00 | 0.00 | 0.00 | 76 | 1012.7 |
| 20260504044303 | 37 | 302 | 0.0 | 2.0 | 0.00 | 0.00 | 0.00 | 75 | 1012.7 |
| 20260504043804 | 37 | 302 | 0.0 | 2.0 | 0.00 | 0.00 | 0.00 | 75 | 1012.7 |
| 20260504042803 | 37 | 302 | 0.0 | 0.0 | 0.00 | 0.00 | 0.00 | 74 | 1012.6 |
| 20260504042304 | 37 | 302 | 0.0 | 0.0 | 0.00 | 0.00 | 0.00 | 74 | 1012.5 |
| 20260504041803 | 37 | 302 | 0.0 | 2.0 | 0.00 | 0.00 | 0.00 | 75 | 1012.5 |
| 20260504040303 | 37 | 302 | 0.0 | 0.0 | 0.00 | 0.00 | 0.00 | 73 | 1012.4 |
| 20260504035804 | 38 | 302 | 0.0 | 0.0 | 0.00 | 0.00 | 0.00 | 73 | 1012.4 |
| 20260504035304 | 38 | 302 | 0.0 | 2.0 | 0.00 | 0.00 | 0.00 | 73 | 1012.3 |
| 20260504034303 | 38 | 302 | 0.0 | 1.0 | 0.00 | 0.00 | 0.00 | 74 | 1012.3 |
| 20260504033803 | 38 | 292 | 0.0 | 0.0 | 0.00 | 0.00 | 0.00 | 72 | 1012.3 |
| 20260504033303 | 38 | 292 | 0.0 | 0.0 | 0.00 | 0.00 | 0.00 | 72 | 1012.3 |
| 20260504032803 | 38 | 292 | 0.0 | 0.0 | 0.00 | 0.00 | 0.00 | 72 | 1012.3 |
| 20260504032304 | 38 | 292 | 0.0 | 0.0 | 0.00 | 0.00 | 0.00 | 72 | 1012.3 |
| 20260504031803 | 38 | 292 | 0.0 | 0.0 | 0.00 | 0.00 | 0.00 | 71 | 1012.2 |
| 20260504031303 | 39 | 292 | 0.0 | 0.0 | 0.00 | 0.00 | 0.00 | 71 | 1012.3 |
| 20260504030803 | 39 | 292 | 0.0 | 0.0 | 0.00 | 0.00 | 0.00 | 71 | 1012.4 |
| 20260504030303 | 39 | 292 | 0.0 | 0.0 | 0.00 | 0.00 | 0.00 | 70 | 1012.3 |
| 20260504025804 | 39 | 292 | 0.0 | 0.0 | 0.00 | 0.00 | 0.00 | 70 | 1012.3 |
| 20260504024303 | 40 | 292 | 0.0 | 0.0 | 0.00 | 0.00 | 0.00 | 67 | 1012.3 |
| 20260504023803 | 40 | 292 | 0.0 | 0.0 | 0.00 | 0.00 | 0.00 | 68 | 1012.3 |
| 20260504023303 | 40 | 292 | 0.0 | 0.0 | 0.00 | 0.00 | 0.00 | 67 | 1012.4 |
| 20260504022803 | 41 | 279 | 0.0 | 0.0 | 0.00 | 0.00 | 0.00 | 67 | 1012.3 |
| 20260504022304 | 41 | 279 | 0.0 | 0.0 | 0.00 | 0.00 | 0.00 | 67 | 1012.4 |
| 20260504021804 | 41 | 279 | 0.0 | 0.0 | 0.00 | 0.00 | 0.00 | 67 | 1012.3 |
| 20260504021303 | 41 | 279 | 0.0 | 0.0 | 0.00 | 0.00 | 0.00 | 66 | 1012.3 |
| 20260504020804 | 42 | 273 | 0.0 | 0.0 | 0.00 | 0.00 | 0.00 | 66 | 1012.3 |
| 20260504020303 | 42 | 251 | 0.0 | 0.0 | 0.00 | 0.00 | 0.00 | 65 | 1012.4 |
| 20260504015803 | 42 | 243 | 0.0 | 0.0 | 0.00 | 0.00 | 0.00 | 64 | 1012.3 |
| 20260504014803 | 43 | 233 | 0.0 | 0.0 | 0.00 | 0.00 | 0.00 | 64 | 1012.2 |
| 20260504014303 | 43 | 218 | 0.0 | 0.0 | 0.00 | 0.00 | 0.00 | 64 | 1012.1 |
| 20260504013803 | 44 | 212 | 0.0 | 0.0 | 0.00 | 0.00 | 0.00 | 63 | 1012.0 |
| 20260504013303 | 44 | 212 | 0.0 | 0.0 | 0.00 | 0.00 | 0.00 | 63 | 1011.8 |
| 20260504012304 | 45 | 196 | 0.0 | 0.0 | 0.00 | 0.00 | 0.00 | 62 | 1011.7 |
| 20260504011803 | 46 | 196 | 0.0 | 0.0 | 0.00 | 0.00 | 0.00 | 62 | 1011.6 |
| 20260504011303 | 46 | 196 | 0.0 | 0.0 | 0.00 | 0.00 | 0.00 | 61 | 1011.5 |
| 20260504010803 | 47 | 196 | 0.0 | 0.0 | 0.00 | 0.00 | 0.00 | 59 | 1011.5 |
| 20260504010303 | 47 | 196 | 0.0 | 0.0 | 0.00 | 0.00 | 0.00 | 58 | 1011.5 |
| 20260504005803 | 48 | 196 | 0.0 | 2.0 | 0.00 | 0.00 | 0.00 | 58 | 1011.5 |
| 20260504004803 | 49 | 184 | 0.0 | 0.0 | 0.00 | 0.00 | 0.00 | 50 | 1011.4 |
| 20260504004303 | 50 | 184 | 0.0 | 0.0 | 0.00 | 0.00 | 0.00 | 52 | 1011.4 |
| 20260504003803 | 50 | 184 | 0.0 | 0.0 | 0.00 | 0.00 | 0.00 | 52 | 1011.4 |
| 20260504003304 | 51 | 168 | 0.0 | 0.0 | 0.00 | 0.00 | 0.00 | 46 | 1011.4 |
| 20260504002804 | 52 | 165 | 0.0 | 2.0 | 0.00 | 0.00 | 0.00 | 44 | 1011.4 |
| 20260504002304 | 52 | 165 | 0.0 | 2.0 | 0.00 | 0.00 | 0.00 | 42 | 1011.3 |
| 20260504001803 | 52 | 184 | 0.0 | 2.0 | 0.00 | 0.00 | 0.00 | 42 | 1011.2 |
| 20260504001303 | 53 | 161 | 0.0 | 2.0 | 0.00 | 0.00 | 0.00 | 41 | 1011.3 |
| 20260504000303 | 53 | 200 | 1.0 | 5.0 | 0.00 | 0.00 | 0.00 | 41 | 1011.2 |
| 20260503235804 | 53 | 190 | 2.0 | 5.0 | 0.00 | 0.00 | 0.00 | 41 | 1011.1 |
| 20260503235304 | 53 | 233 | 1.0 | 5.0 | 0.00 | 0.00 | 0.00 | 40 | 1011.1 |
| 20260503234804 | 54 | 117 | 0.0 | 3.0 | 0.00 | 0.00 | 0.00 | 39 | 1011.1 |
| 20260503234303 | 54 | 157 | 0.0 | 10.0 | 0.00 | 0.00 | 0.00 | 39 | 1011.1 |
| 20260503233303 | 54 | 210 | 3.0 | 10.0 | 0.00 | 0.00 | 0.00 | 39 | 1010.9 |
| 20260503232804 | 55 | 243 | 2.0 | 10.0 | 0.00 | 0.00 | 0.00 | 39 | 1010.8 |
| 20260503232305 | 55 | 242 | 3.0 | 9.0 | 0.00 | 0.00 | 0.00 | 38 | 1010.8 |
| 20260503231803 | 55 | 226 | 2.0 | 10.0 | 0.00 | 0.00 | 0.00 | 39 | 1010.8 |
| 20260503231304 | 55 | 236 | 5.0 | 10.0 | 0.00 | 0.00 | 0.00 | 40 | 1010.8 |
| 20260503230803 | 55 | 223 | 7.0 | 13.0 | 0.00 | 0.00 | 0.00 | 39 | 1010.8 |
| 20260503230304 | 56 | 239 | 2.0 | 13.0 | 0.00 | 0.00 | 0.00 | 37 | 1010.8 |
| 20260503225804 | 56 | 256 | 5.0 | 13.0 | 0.00 | 0.00 | 0.00 | 38 | 1010.8 |
| 20260503225304 | 55 | 235 | 3.0 | 12.0 | 0.00 | 0.00 | 0.00 | 39 | 1010.9 |
| 20260503224803 | 55 | 195 | 5.0 | 14.0 | 0.00 | 0.00 | 0.00 | 39 | 1011.0 |
| 20260503224303 | 56 | 258 | 7.0 | 14.0 | 0.00 | 0.00 | 0.00 | 38 | 1010.9 |
| 20260503223804 | 56 | 198 | 4.0 | 12.0 | 0.00 | 0.00 | 0.00 | 37 | 1010.9 |
| 20260503223304 | 56 | 202 | 5.0 | 13.0 | 0.00 | 0.00 | 0.00 | 38 | 1010.8 |
| 20260503222803 | 56 | 208 | 4.0 | 13.0 | 0.00 | 0.00 | 0.00 | 37 | 1010.7 |
| 20260503221804 | 56 | 254 | 5.0 | 13.0 | 0.00 | 0.00 | 0.00 | 39 | 1010.6 |
| 20260503221304 | 56 | 264 | 6.0 | 13.0 | 0.00 | 0.00 | 0.00 | 39 | 1010.6 |
| 20260503220804 | 55 | 193 | 3.0 | 12.0 | 0.00 | 0.00 | 0.00 | 37 | 1010.6 |
| 20260503220303 | 56 | 273 | 7.0 | 12.0 | 0.00 | 0.00 | 0.00 | 37 | 1010.6 |
| 20260503215804 | 56 | 268 | 3.0 | 14.0 | 0.00 | 0.00 | 0.00 | 38 | 1010.7 |
| 20260503215304 | 55 | 270 | 4.0 | 14.0 | 0.00 | 0.00 | 0.00 | 36 | 1010.6 |
| 20260503214803 | 55 | 189 | 3.0 | 14.0 | 0.00 | 0.00 | 0.00 | 36 | 1010.6 |
| 20260503214304 | 55 | 264 | 7.0 | 14.0 | 0.00 | 0.00 | 0.00 | 37 | 1010.5 |
| 20260503213303 | 55 | 216 | 8.0 | 16.0 | 0.00 | 0.00 | 0.00 | 35 | 1010.4 |
| 20260503212803 | 55 | 225 | 7.0 | 12.0 | 0.00 | 0.00 | 0.00 | 37 | 1010.4 |
| 20260503212305 | 55 | 185 | 6.0 | 14.0 | 0.00 | 0.00 | 0.00 | 38 | 1010.3 |
| 20260503211804 | 55 | 241 | 7.0 | 14.0 | 0.00 | 0.00 | 0.00 | 35 | 1010.3 |
| 20260503211303 | 55 | 289 | 6.0 | 12.0 | 0.00 | 0.00 | 0.00 | 36 | 1010.3 |
| 20260503210803 | 55 | 258 | 6.0 | 12.0 | 0.00 | 0.00 | 0.00 | 35 | 1010.4 |
| 20260503205304 | 55 | 192 | 5.0 | 12.0 | 0.00 | 0.00 | 0.00 | 35 | 1010.4 |
| 20260503204803 | 55 | 205 | 6.0 | 12.0 | 0.00 | 0.00 | 0.00 | 37 | 1010.2 |
| 20260503203804 | 55 | 216 | 5.0 | 18.0 | 0.00 | 0.00 | 0.00 | 34 | 1010.2 |
| 20260503203303 | 55 | 234 | 6.0 | 18.0 | 0.00 | 0.00 | 0.00 | 34 | 1010.2 |
| 20260503202803 | 55 | 209 | 7.0 | 17.0 | 0.00 | 0.00 | 0.00 | 36 | 1010.2 |
| 20260503202304 | 55 | 247 | 5.0 | 17.0 | 0.00 | 0.00 | 0.00 | 36 | 1010.3 |
| 20260503201803 | 55 | 233 | 9.0 | 18.0 | 0.00 | 0.00 | 0.00 | 35 | 1010.3 |
| 20260503200803 | 55 | 241 | 4.0 | 16.0 | 0.00 | 0.00 | 0.00 | 33 | 1010.3 |
| 20260503200304 | 55 | 261 | 8.0 | 16.0 | 0.00 | 0.00 | 0.00 | 36 | 1010.4 |
| 20260503195304 | 54 | 174 | 4.0 | 18.0 | 0.00 | 0.00 | 0.00 | 36 | 1010.4 |
| 20260503194803 | 54 | 278 | 6.0 | 18.0 | 0.00 | 0.00 | 0.00 | 34 | 1010.4 |
| 20260503194304 | 54 | 321 | 6.0 | 13.0 | 0.00 | 0.00 | 0.00 | 37 | 1010.6 |
| 20260503193804 | 54 | 233 | 5.0 | 14.0 | 0.00 | 0.00 | 0.00 | 34 | 1010.6 |
| 20260503193304 | 54 | 205 | 6.0 | 17.0 | 0.00 | 0.00 | 0.00 | 32 | 1010.7 |
| 20260503192804 | 54 | 257 | 8.0 | 17.0 | 0.00 | 0.00 | 0.00 | 34 | 1010.7 |
| 20260503192305 | 54 | 290 | 6.0 | 18.0 | 0.00 | 0.00 | 0.00 | 37 | 1010.7 |
| 20260503191803 | 54 | 311 | 10.0 | 18.0 | 0.00 | 0.00 | 0.00 | 36 | 1010.9 |
| 20260503191303 | 54 | 183 | 3.0 | 17.0 | 0.00 | 0.00 | 0.00 | 36 | 1010.9 |
| 20260503190803 | 53 | 208 | 7.0 | 20.0 | 0.00 | 0.00 | 0.00 | 36 | 1010.9 |
| 20260503190304 | 52 | 292 | 9.0 | 20.0 | 0.00 | 0.00 | 0.00 | 37 | 1011.1 |
| 20260503185804 | 52 | 230 | 10.0 | 17.0 | 0.00 | 0.00 | 0.00 | 36 | 1011.2 |
| 20260503185305 | 52 | 291 | 7.0 | 16.0 | 0.00 | 0.00 | 0.00 | 37 | 1011.2 |
| 20260503184804 | 52 | 247 | 6.0 | 16.0 | 0.00 | 0.00 | 0.00 | 37 | 1011.3 |
| 20260503184304 | 52 | 280 | 9.0 | 15.0 | 0.00 | 0.00 | 0.00 | 36 | 1011.4 |
| 20260503183804 | 52 | 290 | 8.0 | 15.0 | 0.00 | 0.00 | 0.00 | 36 | 1011.5 |
| 20260503183304 | 52 | 261 | 7.0 | 15.0 | 0.00 | 0.00 | 0.00 | 38 | 1011.6 |
| 20260503182803 | 51 | 305 | 6.0 | 15.0 | 0.00 | 0.00 | 0.00 | 39 | 1011.7 |
| 20260503182305 | 51 | 244 | 9.0 | 15.0 | 0.00 | 0.00 | 0.00 | 42 | 1011.8 |
| 20260503181303 | 51 | 239 | 8.0 | 18.0 | 0.00 | 0.00 | 0.00 | 39 | 1011.9 |
| 20260503180803 | 50 | 246 | 10.0 | 18.0 | 0.00 | 0.00 | 0.00 | 38 | 1011.8 |
| 20260503180304 | 50 | 318 | 9.0 | 18.0 | 0.00 | 0.00 | 0.00 | 38 | 1011.9 |
| 20260503175804 | 50 | 255 | 7.0 | 18.0 | 0.00 | 0.00 | 0.00 | 40 | 1012.1 |
| 20260503175305 | 50 | 234 | 9.0 | 18.0 | 0.00 | 0.00 | 0.00 | 40 | 1012.2 |
| 20260503174804 | 49 | 268 | 5.0 | 13.0 | 0.00 | 0.00 | 0.00 | 40 | 1012.1 |
| 20260503174304 | 50 | 227 | 8.0 | 16.0 | 0.00 | 0.00 | 0.00 | 41 | 1012.2 |
| 20260503173804 | 50 | 228 | 8.0 | 18.0 | 0.00 | 0.00 | 0.00 | 41 | 1012.3 |
| 20260503173303 | 49 | 251 | 8.0 | 18.0 | 0.00 | 0.00 | 0.00 | 42 | 1012.4 |
| 20260503172802 | 49 | 242 | 8.0 | 17.0 | 0.00 | 0.00 | 0.00 | 42 | 1012.2 |
| 20260503172305 | 49 | 272 | 8.0 | 17.0 | 0.00 | 0.00 | 0.00 | 41 | 1012.3 |
| 20260503171302 | 49 | 250 | 9.0 | 18.0 | 0.00 | 0.00 | 0.00 | 42 | 1012.4 |
| 20260503170803 | 49 | 251 | 9.0 | 21.0 | 0.00 | 0.00 | 0.00 | 41 | 1012.4 |
| 20260503170302 | 49 | 293 | 9.0 | 21.0 | 0.00 | 0.00 | 0.00 | 41 | 1012.5 |
| 20260503150803 | 45 | 321 | 10.0 | 21.0 | 0.00 | 0.00 | 0.00 | 43 | 1012.9 |
| 20260503150303 | 45 | 305 | 5.0 | 15.0 | 0.00 | 0.00 | 0.00 | 46 | 1012.9 |
| 20260503140303 | 43 | 278 | 8.0 | 16.0 | 0.00 | 0.00 | 0.00 | 54 | 1013.2 |
| 20260503131302 | 41 | 327 | 6.0 | 17.0 | 0.00 | 0.00 | 0.00 | 66 | 1013.4 |
| 20260503130803 | 40 | 249 | 6.0 | 17.0 | 0.00 | 0.00 | 0.00 | 67 | 1013.4 |
| 20260503130302 | 40 | 244 | 7.0 | 17.0 | 0.00 | 0.00 | 0.00 | 67 | 1013.4 |
| 20260503110303 | 37 | 277 | 3.0 | 7.0 | 0.00 | 0.00 | 0.00 | 72 | 1012.8 |